Year,Month,Day,Hour,Minute,Value (Times are PST for temperature in C)
2011,05,08,00,00,8.40
2011,05,08,00,01,8.40
2011,05,08,00,02,8.40
2011,05,08,00,03,8.30
2011,05,08,00,04,8.30
2011,05,08,00,05,8.30
2011,05,08,00,06,8.30
2011,05,08,00,07,8.30
2011,05,08,00,08,8.20
2011,05,08,00,09,8.20
2011,05,08,00,10,8.20
2011,05,08,00,11,8.20
2011,05,08,00,12,8.20
2011,05,08,00,13,8.20
2011,05,08,00,14,8.20
2011,05,08,00,15,8.20
2011,05,08,00,16,8.20
2011,05,08,00,17,8.20
2011,05,08,00,18,8.20
2011,05,08,00,19,8.20
2011,05,08,00,20,8.20
2011,05,08,00,21,8.20
2011,05,08,00,22,8.20
2011,05,08,00,23,8.20
2011,05,08,00,24,8.20
2011,05,08,00,25,8.20
2011,05,08,00,26,8.10
2011,05,08,00,27,8.10
2011,05,08,00,28,8.10
2011,05,08,00,29,8.10
2011,05,08,00,30,8.10
2011,05,08,00,31,8.10
2011,05,08,00,32,8.10
2011,05,08,00,33,8.10
2011,05,08,00,34,8.10
2011,05,08,00,35,8.10
2011,05,08,00,36,8.10
2011,05,08,00,37,8.10
2011,05,08,00,38,8.00
2011,05,08,00,39,8.00
2011,05,08,00,40,8.00
2011,05,08,00,41,8.00
2011,05,08,00,42,8.00
2011,05,08,00,43,7.90
2011,05,08,00,44,7.90
2011,05,08,00,45,7.90
2011,05,08,00,46,7.90
2011,05,08,00,47,7.90
2011,05,08,00,48,7.90
2011,05,08,00,49,7.90
2011,05,08,00,50,7.90
2011,05,08,00,51,7.90
2011,05,08,00,52,7.90
2011,05,08,00,53,7.90
2011,05,08,00,54,7.90
2011,05,08,00,55,7.90
2011,05,08,00,56,7.90
2011,05,08,00,57,7.90
2011,05,08,00,58,7.90
2011,05,08,00,59,7.90
2011,05,08,01,00,7.90
2011,05,08,01,01,7.90
2011,05,08,01,02,7.90
2011,05,08,01,03,7.90
2011,05,08,01,04,7.90
2011,05,08,01,05,7.80
2011,05,08,01,06,7.80
2011,05,08,01,07,7.80
2011,05,08,01,08,7.80
2011,05,08,01,09,7.80
2011,05,08,01,10,7.80
2011,05,08,01,11,7.80
2011,05,08,01,12,7.80
2011,05,08,01,13,7.80
2011,05,08,01,14,7.80
2011,05,08,01,15,7.80
2011,05,08,01,16,7.70
2011,05,08,01,17,7.70
2011,05,08,01,18,7.70
2011,05,08,01,19,7.70
2011,05,08,01,20,7.70
2011,05,08,01,21,7.60
2011,05,08,01,22,7.60
2011,05,08,01,23,7.60
2011,05,08,01,24,7.60
2011,05,08,01,25,7.60
2011,05,08,01,26,7.60
2011,05,08,01,27,7.60
2011,05,08,01,28,7.60
2011,05,08,01,29,7.60
2011,05,08,01,30,7.60
2011,05,08,01,31,7.60
2011,05,08,01,32,7.60
2011,05,08,01,33,7.60
2011,05,08,01,34,7.60
2011,05,08,01,35,7.60
2011,05,08,01,36,7.60
2011,05,08,01,37,7.60
2011,05,08,01,38,7.60
2011,05,08,01,39,7.60
2011,05,08,01,40,7.60
2011,05,08,01,41,7.50
2011,05,08,01,42,7.50
2011,05,08,01,43,7.50
2011,05,08,01,44,7.50
2011,05,08,01,45,7.50
2011,05,08,01,46,7.50
2011,05,08,01,47,7.50
2011,05,08,01,48,7.50
2011,05,08,01,49,7.50
2011,05,08,01,50,7.50
2011,05,08,01,51,7.50
2011,05,08,01,52,7.50
2011,05,08,01,53,7.40
2011,05,08,01,54,7.40
2011,05,08,01,55,7.40
2011,05,08,01,56,7.40
2011,05,08,01,57,7.40
2011,05,08,01,58,7.40
2011,05,08,01,59,7.40
2011,05,08,02,00,7.30
2011,05,08,02,01,7.40
2011,05,08,02,02,7.40
2011,05,08,02,03,7.40
2011,05,08,02,04,7.40
2011,05,08,02,05,7.40
2011,05,08,02,06,7.40
2011,05,08,02,07,7.40
2011,05,08,02,08,7.40
2011,05,08,02,09,7.40
2011,05,08,02,10,7.40
2011,05,08,02,11,7.50
2011,05,08,02,12,7.50
2011,05,08,02,13,7.50
2011,05,08,02,14,7.50
2011,05,08,02,15,7.50
2011,05,08,02,16,7.50
2011,05,08,02,17,7.50
2011,05,08,02,18,7.50
2011,05,08,02,19,7.50
2011,05,08,02,20,7.50
2011,05,08,02,21,7.50
2011,05,08,02,22,7.50
2011,05,08,02,23,7.50
2011,05,08,02,24,7.40
2011,05,08,02,25,7.40
2011,05,08,02,26,7.50
2011,05,08,02,27,7.50
2011,05,08,02,28,7.50
2011,05,08,02,29,7.50
2011,05,08,02,30,7.50
2011,05,08,02,31,7.50
2011,05,08,02,32,7.50
2011,05,08,02,33,7.50
2011,05,08,02,34,7.50
2011,05,08,02,35,7.50
2011,05,08,02,36,7.50
2011,05,08,02,37,7.50
2011,05,08,02,38,7.50
2011,05,08,02,39,7.50
2011,05,08,02,40,7.50
2011,05,08,02,41,7.50
2011,05,08,02,42,7.50
2011,05,08,02,43,7.50
2011,05,08,02,44,7.40
2011,05,08,02,45,7.40
2011,05,08,02,46,7.40
2011,05,08,02,47,7.40
2011,05,08,02,48,7.40
2011,05,08,02,49,7.40
2011,05,08,02,50,7.40
2011,05,08,02,51,7.40
2011,05,08,02,52,7.40
2011,05,08,02,53,7.40
2011,05,08,02,54,7.40
2011,05,08,02,55,7.40
2011,05,08,02,56,7.40
2011,05,08,02,57,7.40
2011,05,08,02,58,7.40
2011,05,08,02,59,7.40
2011,05,08,03,00,7.30
2011,05,08,03,01,7.30
2011,05,08,03,02,7.30
2011,05,08,03,03,7.30
2011,05,08,03,04,7.30
2011,05,08,03,05,7.30
2011,05,08,03,06,7.30
2011,05,08,03,07,7.30
2011,05,08,03,08,7.30
2011,05,08,03,09,7.30
2011,05,08,03,10,7.30
2011,05,08,03,11,7.30
2011,05,08,03,12,7.30
2011,05,08,03,13,7.30
2011,05,08,03,14,7.30
2011,05,08,03,15,7.30
2011,05,08,03,16,7.30
2011,05,08,03,17,7.30
2011,05,08,03,18,7.30
2011,05,08,03,19,7.30
2011,05,08,03,20,7.30
2011,05,08,03,21,7.30
2011,05,08,03,22,7.30
2011,05,08,03,23,7.30
2011,05,08,03,24,7.30
2011,05,08,03,25,7.30
2011,05,08,03,26,7.30
2011,05,08,03,27,7.30
2011,05,08,03,28,7.30
2011,05,08,03,29,7.30
2011,05,08,03,30,7.30
2011,05,08,03,31,7.30
2011,05,08,03,32,7.30
2011,05,08,03,33,7.30
2011,05,08,03,34,7.30
2011,05,08,03,35,7.30
2011,05,08,03,36,7.30
2011,05,08,03,37,7.30
2011,05,08,03,38,7.30
2011,05,08,03,39,7.30
2011,05,08,03,40,7.30
2011,05,08,03,41,7.30
2011,05,08,03,42,7.30
2011,05,08,03,43,7.30
2011,05,08,03,44,7.30
2011,05,08,03,45,7.30
2011,05,08,03,46,7.20
2011,05,08,03,47,7.30
2011,05,08,03,48,7.30
2011,05,08,03,49,7.20
2011,05,08,03,50,7.20
2011,05,08,03,51,7.20
2011,05,08,03,52,7.20
2011,05,08,03,53,7.20
2011,05,08,03,54,7.20
2011,05,08,03,55,7.20
2011,05,08,03,56,7.20
2011,05,08,03,57,7.20
2011,05,08,03,58,7.20
2011,05,08,03,59,7.20
2011,05,08,04,00,7.20
2011,05,08,04,01,7.20
2011,05,08,04,02,7.20
2011,05,08,04,03,7.20
2011,05,08,04,04,7.20
2011,05,08,04,05,7.20
2011,05,08,04,06,7.10
2011,05,08,04,07,7.10
2011,05,08,04,08,7.10
2011,05,08,04,09,7.10
2011,05,08,04,10,7.10
2011,05,08,04,11,7.10
2011,05,08,04,12,7.10
2011,05,08,04,13,7.00
2011,05,08,04,14,7.00
2011,05,08,04,15,7.00
2011,05,08,04,16,7.00
2011,05,08,04,17,7.00
2011,05,08,04,18,6.90
2011,05,08,04,19,6.90
2011,05,08,04,20,6.90
2011,05,08,04,21,6.90
2011,05,08,04,22,6.90
2011,05,08,04,23,6.90
2011,05,08,04,24,6.90
2011,05,08,04,25,6.90
2011,05,08,04,26,6.90
2011,05,08,04,27,6.90
2011,05,08,04,28,6.90
2011,05,08,04,29,6.90
2011,05,08,04,30,6.90
2011,05,08,04,31,6.80
2011,05,08,04,32,6.80
2011,05,08,04,33,6.80
2011,05,08,04,34,6.80
2011,05,08,04,35,6.80
2011,05,08,04,36,6.80
2011,05,08,04,37,6.80
2011,05,08,04,38,6.80
2011,05,08,04,39,6.80
2011,05,08,04,40,6.80
2011,05,08,04,41,6.80
2011,05,08,04,42,6.80
2011,05,08,04,43,6.80
2011,05,08,04,44,6.80
2011,05,08,04,45,6.80
2011,05,08,04,46,6.80
2011,05,08,04,47,6.80
2011,05,08,04,48,6.80
2011,05,08,04,49,6.80
2011,05,08,04,50,6.80
2011,05,08,04,51,6.80
2011,05,08,04,52,6.70
2011,05,08,04,53,6.70
2011,05,08,04,54,6.70
2011,05,08,04,55,6.70
2011,05,08,04,56,6.70
2011,05,08,04,57,6.60
2011,05,08,04,58,6.60
2011,05,08,04,59,6.60
2011,05,08,05,00,6.60
2011,05,08,05,01,6.60
2011,05,08,05,02,6.60
2011,05,08,05,03,6.60
2011,05,08,05,04,6.60
2011,05,08,05,05,6.40
2011,05,08,05,06,6.40
2011,05,08,05,07,6.40
2011,05,08,05,08,6.40
2011,05,08,05,09,6.40
2011,05,08,05,10,6.40
2011,05,08,05,11,6.40
2011,05,08,05,12,6.40
2011,05,08,05,13,6.40
2011,05,08,05,14,6.40
2011,05,08,05,15,6.40
2011,05,08,05,16,6.40
2011,05,08,05,17,6.40
2011,05,08,05,18,6.30
2011,05,08,05,19,6.30
2011,05,08,05,20,6.30
2011,05,08,05,21,6.30
2011,05,08,05,22,6.30
2011,05,08,05,23,6.30
2011,05,08,05,24,6.30
2011,05,08,05,25,6.30
2011,05,08,05,26,6.20
2011,05,08,05,27,6.20
2011,05,08,05,28,6.20
2011,05,08,05,29,6.20
2011,05,08,05,30,6.20
2011,05,08,05,31,6.20
2011,05,08,05,32,6.20
2011,05,08,05,33,6.20
2011,05,08,05,34,6.20
2011,05,08,05,35,6.20
2011,05,08,05,36,6.10
2011,05,08,05,37,6.10
2011,05,08,05,38,6.10
2011,05,08,05,39,6.10
2011,05,08,05,40,6.00
2011,05,08,05,41,6.00
2011,05,08,05,42,6.00
2011,05,08,05,43,6.00
2011,05,08,05,44,5.90
2011,05,08,05,45,5.90
2011,05,08,05,46,5.90
2011,05,08,05,47,5.90
2011,05,08,05,48,5.90
2011,05,08,05,49,5.80
2011,05,08,05,50,5.80
2011,05,08,05,51,5.80
2011,05,08,05,52,5.80
2011,05,08,05,53,5.80
2011,05,08,05,54,5.80
2011,05,08,05,55,5.80
2011,05,08,05,56,5.70
2011,05,08,05,57,5.70
2011,05,08,05,58,5.70
2011,05,08,05,59,5.70
2011,05,08,06,00,5.70
2011,05,08,06,01,5.70
2011,05,08,06,02,5.60
2011,05,08,06,03,5.60
2011,05,08,06,04,5.60
2011,05,08,06,05,5.50
2011,05,08,06,06,5.50
2011,05,08,06,07,5.50
2011,05,08,06,08,5.50
2011,05,08,06,09,5.40
2011,05,08,06,10,5.40
2011,05,08,06,11,5.40
2011,05,08,06,12,5.40
2011,05,08,06,13,5.40
2011,05,08,06,14,5.40
2011,05,08,06,15,5.40
2011,05,08,06,16,5.30
2011,05,08,06,17,5.30
2011,05,08,06,18,5.30
2011,05,08,06,19,5.30
2011,05,08,06,20,5.30
2011,05,08,06,21,5.30
2011,05,08,06,22,5.30
2011,05,08,06,23,5.30
2011,05,08,06,24,5.30
2011,05,08,06,25,5.30
2011,05,08,06,26,5.30
2011,05,08,06,27,5.30
2011,05,08,06,28,5.30
2011,05,08,06,29,5.30
2011,05,08,06,30,5.30
2011,05,08,06,31,5.30
2011,05,08,06,32,5.30
2011,05,08,06,33,5.30
2011,05,08,06,34,5.30
2011,05,08,06,35,5.30
2011,05,08,06,36,5.30
2011,05,08,06,37,5.30
2011,05,08,06,38,5.30
2011,05,08,06,39,5.30
2011,05,08,06,40,5.30
2011,05,08,06,41,5.30
2011,05,08,06,42,5.30
2011,05,08,06,43,5.40
2011,05,08,06,44,5.40
2011,05,08,06,45,5.40
2011,05,08,06,46,5.40
2011,05,08,06,47,5.40
2011,05,08,06,48,5.40
2011,05,08,06,49,5.50
2011,05,08,06,50,5.50
2011,05,08,06,51,5.50
2011,05,08,06,52,5.50
2011,05,08,06,53,5.50
2011,05,08,06,54,5.60
2011,05,08,06,55,5.60
2011,05,08,06,56,5.70
2011,05,08,06,57,5.70
2011,05,08,06,58,5.70
2011,05,08,06,59,5.70
2011,05,08,07,00,5.80
2011,05,08,07,01,5.80
2011,05,08,07,02,5.90
2011,05,08,07,03,5.90
2011,05,08,07,04,5.90
2011,05,08,07,05,6.00
2011,05,08,07,06,6.00
2011,05,08,07,07,6.00
2011,05,08,07,08,6.10
2011,05,08,07,09,6.10
2011,05,08,07,10,6.10
2011,05,08,07,11,6.20
2011,05,08,07,12,6.20
2011,05,08,07,13,6.20
2011,05,08,07,14,6.20
2011,05,08,07,15,6.20
2011,05,08,07,16,6.20
2011,05,08,07,17,6.20
2011,05,08,07,18,6.30
2011,05,08,07,19,6.30
2011,05,08,07,20,6.30
2011,05,08,07,21,6.30
2011,05,08,07,22,6.30
2011,05,08,07,23,6.40
2011,05,08,07,24,6.40
2011,05,08,07,25,6.40
2011,05,08,07,26,6.40
2011,05,08,07,27,6.40
2011,05,08,07,28,6.40
2011,05,08,07,29,6.50
2011,05,08,07,30,6.60
2011,05,08,07,31,6.60
2011,05,08,07,32,6.60
2011,05,08,07,33,6.60
2011,05,08,07,34,6.60
2011,05,08,07,35,6.60
2011,05,08,07,36,6.60
2011,05,08,07,37,6.60
2011,05,08,07,38,6.60
2011,05,08,07,39,6.70
2011,05,08,07,40,6.70
2011,05,08,07,41,6.80
2011,05,08,07,42,6.80
2011,05,08,07,43,6.80
2011,05,08,07,44,6.90
2011,05,08,07,45,6.90
2011,05,08,07,46,7.00
2011,05,08,07,47,7.00
2011,05,08,07,48,7.00
2011,05,08,07,49,7.10
2011,05,08,07,50,7.10
2011,05,08,07,51,7.20
2011,05,08,07,52,7.20
2011,05,08,07,53,7.20
2011,05,08,07,54,7.30
2011,05,08,07,55,7.30
2011,05,08,07,56,7.30
2011,05,08,07,57,7.30
2011,05,08,07,58,7.30
2011,05,08,07,59,7.30
2011,05,08,08,00,7.30
2011,05,08,08,01,7.30
2011,05,08,08,02,7.30
2011,05,08,08,03,7.40
2011,05,08,08,04,7.40
2011,05,08,08,05,7.40
2011,05,08,08,06,7.50
2011,05,08,08,07,7.50
2011,05,08,08,08,7.50
2011,05,08,08,09,7.40
2011,05,08,08,10,7.50
2011,05,08,08,11,7.50
2011,05,08,08,12,7.50
2011,05,08,08,13,7.50
2011,05,08,08,14,7.50
2011,05,08,08,15,7.50
2011,05,08,08,16,7.50
2011,05,08,08,17,7.50
2011,05,08,08,18,7.60
2011,05,08,08,19,7.60
2011,05,08,08,20,7.70
2011,05,08,08,21,7.80
2011,05,08,08,22,7.80
2011,05,08,08,23,7.80
2011,05,08,08,24,7.80
2011,05,08,08,25,7.80
2011,05,08,08,26,7.90
2011,05,08,08,27,7.90
2011,05,08,08,28,7.90
2011,05,08,08,29,8.00
2011,05,08,08,30,8.00
2011,05,08,08,31,8.10
2011,05,08,08,32,8.20
2011,05,08,08,33,8.20
2011,05,08,08,34,8.30
2011,05,08,08,35,8.40
2011,05,08,08,36,8.50
2011,05,08,08,37,8.60
2011,05,08,08,38,8.70
2011,05,08,08,39,8.70
2011,05,08,08,40,8.70
2011,05,08,08,41,8.80
2011,05,08,08,42,8.80
2011,05,08,08,43,8.90
2011,05,08,08,44,9.00
2011,05,08,08,45,9.00
2011,05,08,08,46,9.00
2011,05,08,08,47,9.00
2011,05,08,08,48,9.10
2011,05,08,08,49,9.10
2011,05,08,08,50,9.10
2011,05,08,08,51,9.20
2011,05,08,08,52,9.20
2011,05,08,08,53,9.30
2011,05,08,08,54,9.40
2011,05,08,08,55,9.50
2011,05,08,08,56,9.50
2011,05,08,08,57,9.50
2011,05,08,08,58,9.60
2011,05,08,08,59,9.70
2011,05,08,09,00,9.70
2011,05,08,09,01,9.70
2011,05,08,09,02,9.70
2011,05,08,09,03,9.80
2011,05,08,09,04,9.80
2011,05,08,09,05,9.80
2011,05,08,09,06,9.80
2011,05,08,09,07,9.80
2011,05,08,09,08,9.90
2011,05,08,09,09,9.90
2011,05,08,09,10,9.90
2011,05,08,09,11,9.90
2011,05,08,09,12,10.10
2011,05,08,09,13,10.10
2011,05,08,09,14,10.10
2011,05,08,09,15,10.10
2011,05,08,09,16,10.20
2011,05,08,09,17,10.20
2011,05,08,09,18,10.30
2011,05,08,09,19,10.30
2011,05,08,09,20,10.40
2011,05,08,09,21,10.40
2011,05,08,09,22,10.40
2011,05,08,09,23,10.40
2011,05,08,09,24,10.40
2011,05,08,09,25,10.50
2011,05,08,09,26,10.60
2011,05,08,09,27,10.70
2011,05,08,09,28,10.70
2011,05,08,09,29,10.80
2011,05,08,09,30,10.80
2011,05,08,09,31,10.80
2011,05,08,09,32,10.80
2011,05,08,09,33,10.80
2011,05,08,09,34,10.90
2011,05,08,09,35,10.90
2011,05,08,09,36,10.90
2011,05,08,09,37,11.00
2011,05,08,09,38,11.10
2011,05,08,09,39,11.10
2011,05,08,09,40,11.20
2011,05,08,09,41,11.20
2011,05,08,09,42,11.30
2011,05,08,09,43,11.30
2011,05,08,09,44,11.40
2011,05,08,09,45,11.50
2011,05,08,09,46,11.60
2011,05,08,09,47,11.70
2011,05,08,09,48,11.70
2011,05,08,09,49,11.70
2011,05,08,09,50,11.70
2011,05,08,09,51,11.80
2011,05,08,09,52,11.80
2011,05,08,09,53,11.80
2011,05,08,09,54,11.80
2011,05,08,09,55,11.70
2011,05,08,09,56,11.60
2011,05,08,09,57,11.60
2011,05,08,09,58,11.50
2011,05,08,09,59,11.50
2011,05,08,10,00,11.60
2011,05,08,10,01,11.60
2011,05,08,10,02,11.70
2011,05,08,10,03,11.80
2011,05,08,10,04,11.80
2011,05,08,10,05,11.80
2011,05,08,10,06,11.80
2011,05,08,10,07,11.70
2011,05,08,10,08,11.60
2011,05,08,10,09,11.60
2011,05,08,10,10,11.60
2011,05,08,10,11,11.60
2011,05,08,10,12,11.60
2011,05,08,10,13,11.70
2011,05,08,10,14,11.80
2011,05,08,10,15,11.80
2011,05,08,10,16,11.90
2011,05,08,10,17,12.00
2011,05,08,10,18,12.10
2011,05,08,10,19,12.20
2011,05,08,10,20,12.30
2011,05,08,10,21,12.30
2011,05,08,10,22,12.40
2011,05,08,10,23,12.50
2011,05,08,10,24,12.50
2011,05,08,10,25,12.50
2011,05,08,10,26,12.60
2011,05,08,10,27,12.60
2011,05,08,10,28,12.60
2011,05,08,10,29,12.60
2011,05,08,10,30,12.60
2011,05,08,10,31,12.70
2011,05,08,10,32,12.80
2011,05,08,10,33,12.80
2011,05,08,10,34,12.80
2011,05,08,10,35,12.80
2011,05,08,10,36,12.70
2011,05,08,10,37,12.80
2011,05,08,10,38,12.80
2011,05,08,10,39,12.90
2011,05,08,10,40,12.90
2011,05,08,10,41,13.00
2011,05,08,10,42,13.00
2011,05,08,10,43,13.00
2011,05,08,10,44,13.10
2011,05,08,10,45,13.10
2011,05,08,10,46,13.20
2011,05,08,10,47,13.20
2011,05,08,10,48,13.10
2011,05,08,10,49,13.10
2011,05,08,10,50,13.10
2011,05,08,10,51,13.00
2011,05,08,10,52,13.00
2011,05,08,10,53,12.90
2011,05,08,10,54,12.90
2011,05,08,10,55,12.90
2011,05,08,10,56,13.00
2011,05,08,10,57,13.00
2011,05,08,10,58,13.10
2011,05,08,10,59,13.10
2011,05,08,11,00,13.20
2011,05,08,11,01,13.20
2011,05,08,11,02,13.30
2011,05,08,11,03,13.30
2011,05,08,11,04,13.30
2011,05,08,11,05,13.30
2011,05,08,11,06,13.40
2011,05,08,11,07,13.40
2011,05,08,11,08,13.30
2011,05,08,11,09,13.30
2011,05,08,11,10,13.30
2011,05,08,11,11,13.20
2011,05,08,11,12,13.20
2011,05,08,11,13,13.10
2011,05,08,11,14,13.10
2011,05,08,11,15,13.10
2011,05,08,11,16,13.00
2011,05,08,11,17,12.80
2011,05,08,11,18,12.80
2011,05,08,11,19,12.70
2011,05,08,11,20,12.60
2011,05,08,11,21,12.50
2011,05,08,11,22,12.60
2011,05,08,11,23,12.60
2011,05,08,11,24,12.50
2011,05,08,11,25,12.50
2011,05,08,11,26,12.40
2011,05,08,11,27,12.30
2011,05,08,11,28,12.20
2011,05,08,11,29,12.10
2011,05,08,11,30,12.10
2011,05,08,11,31,12.10
2011,05,08,11,32,12.10
2011,05,08,11,33,12.10
2011,05,08,11,34,12.00
2011,05,08,11,35,12.00
2011,05,08,11,36,12.00
2011,05,08,11,37,12.00
2011,05,08,11,38,12.00
2011,05,08,11,39,12.00
2011,05,08,11,40,12.00
2011,05,08,11,41,12.00
2011,05,08,11,42,11.90
2011,05,08,11,43,11.90
2011,05,08,11,44,11.90
2011,05,08,11,45,11.90
2011,05,08,11,46,11.80
2011,05,08,11,47,11.90
2011,05,08,11,48,11.90
2011,05,08,11,49,12.00
2011,05,08,11,50,12.00
2011,05,08,11,51,12.10
2011,05,08,11,52,12.10
2011,05,08,11,53,12.10
2011,05,08,11,54,12.10
2011,05,08,11,55,12.10
2011,05,08,11,56,12.00
2011,05,08,11,57,12.00
2011,05,08,11,58,12.10
2011,05,08,11,59,12.10
2011,05,08,12,00,12.10
2011,05,08,12,01,12.10
2011,05,08,12,02,12.10
2011,05,08,12,03,12.00
2011,05,08,12,04,12.00
2011,05,08,12,05,12.00
2011,05,08,12,06,12.10
2011,05,08,12,07,12.10
2011,05,08,12,08,12.10
2011,05,08,12,09,12.20
2011,05,08,12,10,12.30
2011,05,08,12,11,12.30
2011,05,08,12,12,12.30
2011,05,08,12,13,12.50
2011,05,08,12,14,12.50
2011,05,08,12,15,12.70
2011,05,08,12,16,12.70
2011,05,08,12,17,12.70
2011,05,08,12,18,12.70
2011,05,08,12,19,12.80
2011,05,08,12,20,12.70
2011,05,08,12,21,12.70
2011,05,08,12,22,12.70
2011,05,08,12,23,12.70
2011,05,08,12,24,12.60
2011,05,08,12,25,12.60
2011,05,08,12,26,12.50
2011,05,08,12,27,12.40
2011,05,08,12,28,12.40
2011,05,08,12,29,12.40
2011,05,08,12,30,12.40
2011,05,08,12,31,12.40
2011,05,08,12,32,12.40
2011,05,08,12,33,12.40
2011,05,08,12,34,12.50
2011,05,08,12,35,12.50
2011,05,08,12,36,12.50
2011,05,08,12,37,12.50
2011,05,08,12,38,12.50
2011,05,08,12,39,12.60
2011,05,08,12,40,12.60
2011,05,08,12,41,12.60
2011,05,08,12,42,12.50
2011,05,08,12,43,12.50
2011,05,08,12,44,12.50
2011,05,08,12,45,12.50
2011,05,08,12,46,12.50
2011,05,08,12,47,12.40
2011,05,08,12,48,12.30
2011,05,08,12,49,12.30
2011,05,08,12,50,12.30
2011,05,08,12,51,12.30
2011,05,08,12,52,12.30
2011,05,08,12,53,12.30
2011,05,08,12,54,12.30
2011,05,08,12,55,12.30
2011,05,08,12,56,12.30
2011,05,08,12,57,12.30
2011,05,08,12,58,12.30
2011,05,08,12,59,12.30
2011,05,08,13,00,12.30
2011,05,08,13,01,12.30
2011,05,08,13,02,12.20
2011,05,08,13,03,12.30
2011,05,08,13,04,12.30
2011,05,08,13,05,12.30
2011,05,08,13,06,12.30
2011,05,08,13,07,12.30
2011,05,08,13,08,12.40
2011,05,08,13,09,12.40
2011,05,08,13,10,12.40
2011,05,08,13,11,12.50
2011,05,08,13,12,12.50
2011,05,08,13,13,12.60
2011,05,08,13,14,12.60
2011,05,08,13,15,12.70
2011,05,08,13,16,12.70
2011,05,08,13,17,12.70
2011,05,08,13,18,12.70
2011,05,08,13,19,12.70
2011,05,08,13,20,12.70
2011,05,08,13,21,12.70
2011,05,08,13,22,12.70
2011,05,08,13,23,12.70
2011,05,08,13,24,12.70
2011,05,08,13,25,12.70
2011,05,08,13,26,12.70
2011,05,08,13,27,12.70
2011,05,08,13,28,12.70
2011,05,08,13,29,12.70
2011,05,08,13,30,12.70
2011,05,08,13,31,12.70
2011,05,08,13,32,12.70
2011,05,08,13,33,12.80
2011,05,08,13,34,12.80
2011,05,08,13,35,12.80
2011,05,08,13,36,12.80
2011,05,08,13,37,12.80
2011,05,08,13,38,12.80
2011,05,08,13,39,12.80
2011,05,08,13,40,12.80
2011,05,08,13,41,12.80
2011,05,08,13,42,12.80
2011,05,08,13,43,12.80
2011,05,08,13,44,12.80
2011,05,08,13,45,12.80
2011,05,08,13,46,12.80
2011,05,08,13,47,12.80
2011,05,08,13,48,12.70
2011,05,08,13,49,12.70
2011,05,08,13,50,12.60
2011,05,08,13,51,12.60
2011,05,08,13,52,12.50
2011,05,08,13,53,12.50
2011,05,08,13,54,12.40
2011,05,08,13,55,12.30
2011,05,08,13,56,12.40
2011,05,08,13,57,12.30
2011,05,08,13,58,12.40
2011,05,08,13,59,12.40
2011,05,08,14,00,12.40
2011,05,08,14,01,12.40
2011,05,08,14,02,12.40
2011,05,08,14,03,12.40
2011,05,08,14,04,12.40
2011,05,08,14,05,12.50
2011,05,08,14,06,12.50
2011,05,08,14,07,12.50
2011,05,08,14,08,12.50
2011,05,08,14,09,12.50
2011,05,08,14,10,12.50
2011,05,08,14,11,12.50
2011,05,08,14,12,12.40
2011,05,08,14,13,12.40
2011,05,08,14,14,12.40
2011,05,08,14,15,12.40
2011,05,08,14,16,12.40
2011,05,08,14,17,12.30
2011,05,08,14,18,12.30
2011,05,08,14,19,12.30
2011,05,08,14,20,12.30
2011,05,08,14,21,12.30
2011,05,08,14,22,12.30
2011,05,08,14,23,12.30
2011,05,08,14,24,12.30
2011,05,08,14,25,12.30
2011,05,08,14,26,12.30
2011,05,08,14,27,12.30
2011,05,08,14,28,12.30
2011,05,08,14,29,12.30
2011,05,08,14,30,12.40
2011,05,08,14,31,12.40
2011,05,08,14,32,12.40
2011,05,08,14,33,12.40
2011,05,08,14,34,12.40
2011,05,08,14,35,12.40
2011,05,08,14,36,12.40
2011,05,08,14,37,12.50
2011,05,08,14,38,12.50
2011,05,08,14,39,12.50
2011,05,08,14,40,12.60
2011,05,08,14,41,12.60
2011,05,08,14,42,12.70
2011,05,08,14,43,12.80
2011,05,08,14,44,12.90
2011,05,08,14,45,13.00
2011,05,08,14,46,13.10
2011,05,08,14,47,13.20
2011,05,08,14,48,13.30
2011,05,08,14,49,13.30
2011,05,08,14,50,13.30
2011,05,08,14,51,13.40
2011,05,08,14,52,13.40
2011,05,08,14,53,13.40
2011,05,08,14,54,13.50
2011,05,08,14,55,13.60
2011,05,08,14,56,13.60
2011,05,08,14,57,13.70
2011,05,08,14,58,13.70
2011,05,08,14,59,13.80
2011,05,08,15,00,13.90
2011,05,08,15,01,13.90
2011,05,08,15,02,13.90
2011,05,08,15,03,13.90
2011,05,08,15,04,13.80
2011,05,08,15,05,13.70
2011,05,08,15,06,13.70
2011,05,08,15,07,13.70
2011,05,08,15,08,13.70
2011,05,08,15,09,13.70
2011,05,08,15,10,13.80
2011,05,08,15,11,13.80
2011,05,08,15,12,13.80
2011,05,08,15,13,13.80
2011,05,08,15,14,13.80
2011,05,08,15,15,13.80
2011,05,08,15,16,13.80
2011,05,08,15,17,13.70
2011,05,08,15,18,13.70
2011,05,08,15,19,13.70
2011,05,08,15,20,13.70
2011,05,08,15,21,13.60
2011,05,08,15,22,13.60
2011,05,08,15,23,13.60
2011,05,08,15,24,13.60
2011,05,08,15,25,13.60
2011,05,08,15,26,13.60
2011,05,08,15,27,13.70
2011,05,08,15,28,13.70
2011,05,08,15,29,13.70
2011,05,08,15,30,13.70
2011,05,08,15,31,13.70
2011,05,08,15,32,13.70
2011,05,08,15,33,13.70
2011,05,08,15,34,13.70
2011,05,08,15,35,13.70
2011,05,08,15,36,13.70
2011,05,08,15,37,13.70
2011,05,08,15,38,13.60
2011,05,08,15,39,13.60
2011,05,08,15,40,13.50
2011,05,08,15,41,13.50
2011,05,08,15,42,13.50
2011,05,08,15,43,13.50
2011,05,08,15,44,13.50
2011,05,08,15,45,13.50
2011,05,08,15,46,13.50
2011,05,08,15,47,13.50
2011,05,08,15,48,13.50
2011,05,08,15,49,13.50
2011,05,08,15,50,13.50
2011,05,08,15,51,13.50
2011,05,08,15,52,13.50
2011,05,08,15,53,13.50
2011,05,08,15,54,13.40
2011,05,08,15,55,13.40
2011,05,08,15,56,13.30
2011,05,08,15,57,13.40
2011,05,08,15,58,13.40
2011,05,08,15,59,13.40
2011,05,08,16,00,13.40
2011,05,08,16,01,13.50
2011,05,08,16,02,13.40
2011,05,08,16,03,13.50
2011,05,08,16,04,13.50
2011,05,08,16,05,13.50
2011,05,08,16,06,13.60
2011,05,08,16,07,13.60
2011,05,08,16,08,13.70
2011,05,08,16,09,13.70
2011,05,08,16,10,13.70
2011,05,08,16,11,13.80
2011,05,08,16,12,13.90
2011,05,08,16,13,14.00
2011,05,08,16,14,14.00
2011,05,08,16,15,14.10
2011,05,08,16,16,14.10
2011,05,08,16,17,14.20
2011,05,08,16,18,14.20
2011,05,08,16,19,14.20
2011,05,08,16,20,14.20
2011,05,08,16,21,14.10
2011,05,08,16,22,14.00
2011,05,08,16,23,13.90
2011,05,08,16,24,13.80
2011,05,08,16,25,13.70
2011,05,08,16,26,13.70
2011,05,08,16,27,13.60
2011,05,08,16,28,13.60
2011,05,08,16,29,13.70
2011,05,08,16,30,13.60
2011,05,08,16,31,13.60
2011,05,08,16,32,13.60
2011,05,08,16,33,13.60
2011,05,08,16,34,13.70
2011,05,08,16,35,13.70
2011,05,08,16,36,13.80
2011,05,08,16,37,13.90
2011,05,08,16,38,13.90
2011,05,08,16,39,13.90
2011,05,08,16,40,13.90
2011,05,08,16,41,13.90
2011,05,08,16,42,13.90
2011,05,08,16,43,13.80
2011,05,08,16,44,13.90
2011,05,08,16,45,13.90
2011,05,08,16,46,13.90
2011,05,08,16,47,13.90
2011,05,08,16,48,14.00
2011,05,08,16,49,14.00
2011,05,08,16,50,14.10
2011,05,08,16,51,14.20
2011,05,08,16,52,14.20
2011,05,08,16,53,14.20
2011,05,08,16,54,14.30
2011,05,08,16,55,14.30
2011,05,08,16,56,14.40
2011,05,08,16,57,14.40
2011,05,08,16,58,14.50
2011,05,08,16,59,14.50
2011,05,08,17,00,14.50
2011,05,08,17,01,14.40
2011,05,08,17,02,14.40
2011,05,08,17,03,14.40
2011,05,08,17,04,14.40
2011,05,08,17,05,14.40
2011,05,08,17,06,14.40
2011,05,08,17,07,14.40
2011,05,08,17,08,14.30
2011,05,08,17,09,14.30
2011,05,08,17,10,14.30
2011,05,08,17,11,14.30
2011,05,08,17,12,14.30
2011,05,08,17,13,14.20
2011,05,08,17,14,14.10
2011,05,08,17,15,14.00
2011,05,08,17,16,14.00
2011,05,08,17,17,14.00
2011,05,08,17,18,14.00
2011,05,08,17,19,14.00
2011,05,08,17,20,14.10
2011,05,08,17,21,14.20
2011,05,08,17,22,14.20
2011,05,08,17,23,14.20
2011,05,08,17,24,14.20
2011,05,08,17,25,14.30
2011,05,08,17,26,14.30
2011,05,08,17,27,14.30
2011,05,08,17,28,14.30
2011,05,08,17,29,14.30
2011,05,08,17,30,14.20
2011,05,08,17,31,14.20
2011,05,08,17,32,14.20
2011,05,08,17,33,14.20
2011,05,08,17,34,14.20
2011,05,08,17,35,14.20
2011,05,08,17,36,14.20
2011,05,08,17,37,14.20
2011,05,08,17,38,14.20
2011,05,08,17,39,14.20
2011,05,08,17,40,14.20
2011,05,08,17,41,14.20
2011,05,08,17,42,14.20
2011,05,08,17,43,14.20